Location: Newark
(7.1028°S, 35.3258°W)
Time: 17:23:12
(UTC+00:00)

Explorer 11/Cluster Stage 4 - Visible Passes

Search period start: 19 February 2020 00:00
Search period end: 29 February 2020 00:00
Orbit: 467 x 1259 km, 28.8° (Epoch: 18 February)

Date Brightness Start Highest point End Pass type
(mag) Time Alt. Az. Time Alt. Az. Time Alt. Az.
19 Feb 8.6 21:50:21 10° SW 21:56:56 27° SSE 22:00:46 18° ESE visible
19 Feb 8.8 23:39:14 10° SW 23:42:54 29° SW 23:42:54 29° SW visible
20 Feb 8.5 21:39:13 10° SW 21:46:14 31° SSE 21:50:43 17° ESE visible
20 Feb 8.4 23:28:13 10° WSW 23:32:51 38° SW 23:32:51 38° SW visible
21 Feb 8.4 21:28:07 10° SW 21:35:30 35° SSE 21:40:42 16° ESE visible
21 Feb 8.0 23:17:14 10° WSW 23:22:51 48° WSW 23:22:51 48° WSW visible
22 Feb 8.2 21:17:02 10° SW 21:24:43 40° SSE 21:30:45 14° E visible
22 Feb 7.7 23:06:18 10° WSW 23:12:54 59° W 23:12:54 59° W visible
23 Feb 8.1 21:06:01 10° SW 21:13:54 46° SSE 21:20:51 12° E visible
23 Feb 7.5 22:55:25 10° WSW 23:03:01 63° NW 23:03:01 63° NW visible
24 Feb 7.9 20:55:01 10° SW 21:03:04 53° SSE 21:10:44 10° ENE visible
24 Feb 7.6 22:44:35 10° WSW 22:52:34 55° NNW 22:53:11 54° NNW visible
25 Feb 7.9 22:33:48 10° WSW 22:41:40 47° NNW 22:43:24 41° N visible
26 Feb 8.3 22:23:07 10° W 22:30:45 41° NNW 22:33:39 31° N visible
27 Feb 8.6 22:12:29 10° W 22:19:50 35° NNW 22:23:56 22° NNE visible
28 Feb 8.8 22:01:57 10° W 22:08:56 30° NNW 22:14:14 15° NNE visible
